Location: Chowchilla Mountains
(37.5249°N, 119.7218°W)
Time: 09:30:57
(UTC+00:00)

CZ-3C R/B - Pass Details

Date: 03 August 2024
Orbit: 267 x 32385 km, 20.6° (Epoch: 09 September)

Event Time Altitude Azimuth Distance (km) Brightness Sun altitude
Exits shadow 11:22:42 19° 200° (SSW) 3,096 4.1 -18.2°
Maximum altitude 11:29:25 37° 145° (SE) 4,141 5.1 -17.1°
Drops below altitude 10° 19:13:03 10° 134° (SE) 22,586 9.5 66.7°
Sets 19:39:41 0° 130° (SE) 18,592 8.8 68.9°
